map of MAM home
Great Circle Mapper logo
MAM - Airport
Location
City:  Matamoros, Tamaulipas, México
Name:General Servando Canales International Airport
ICAO / IATA:MMMA / MAM

Details
Type:Airport (Aerodrome, Airfield)
Use:Public/Civil, International (customs port of entry)
Latitude:25°46'12"N (25.769894)
Longitude:97°31'31"W (-97.525310)
Datum:WGS 1984
Elevation:25 ft (8 m)
Runways:1
Longest:7546 × 151 ft (2300 × 46 m), paved

Time
Time Zone:UTC-6 (DST-5)
Local Time:

Weather
METAR:MMMA 010349Z 00000KT 7SM SKC 18/17 A3025 RMK HZY
TAF:MMMA 010522Z 0106/0206 00000KT P6SM SKC
TEMPO 0110/0114 3SM BR BKN010
FM011800 06010KT P6SM SCT020
FM020100 14015KT P6SM BKN020 BKN070

Related Locations
Nearby:
Farthest:RRG: 11159 mi / 17959 km
Plaine Corail, Rodrigues Island, MU

Find:

   beyond  
but within

Other Information
Maps:
NOTAMs:
Links:
Sources:

  
flag of México   

Sectional Chart

Flight Planning
at skyvector.com

Satellite Image

Google Maps Satellite View

 

Copyright © 2004-2014 Karl L. Swartz. All rights reserved.
The Great Circle Mapper name and logo are trademarks of the Great Circle Mapper.
All other trademarks mentioned herein belong to their respective owners.
Please see credits for attibutions and further copyright information.

  Follow gcmap on Facebook Follow gcmap on Twitter

hCard Microformat

Geo Microformat